カタログに戻る

ONEWEB-0651

運用中通信PO
NORAD 56080·PAYLOAD·🇬🇧 United Kingdom

打ち上げ Mar 26, 2023 から Satish Dhawan Space Centre

Loading…

次のパス (今後24時間)

TLE

最新Source: CelesTrak SupGP

元期: Sep 14, 2026, 13:51 UTC

1 56080C 23043AL  26257.57722639 -.00001052  00000+0 -27973-2 0  2570
2 56080  87.8979 241.3935 0002103  93.7263 329.9487 13.15550549    13

AllMySatでONEWEB-0651をリアルタイム追跡

Download on the App Store